THORAD AGENA D DEB, 4645

Orbit data source: Space-Track

THORAD AGENA D DEB, 4645 is space debris in SSO originally from a launch on Wed, 08 Apr 1970 UTC launched from the Air Force Western Test Range (AFWTR). Debris objects in space refer to the collection of defunct objects orbiting the Earth. Examples of debris include non-operational satellites, rocket bodies, and fragments generated from explosions, collisions, or faulty payload assembly.

Loading next visibility...
Identifier
4645, 1970-025AD
Orbit
SSO
Country
Flag of USUS
Related business
Manufacturer
Unknown
Mission
Spacecraft
Bus & Motor
Unknown
Mass
Unknown
Launch date (UTC)
1970-04-08 (56 years ago)
Launch vehicle
Unknown
Launch site
Air Force Western Test Range (AFWTR)
Object type
Payload
Rocket body
Debris
Shape & HBR
Unknown shape, 0.1 m
Radar Cross Section
Small (<0.1 m²)

Expand to show TLE details & history
Last TLE update: 4 hours ago

TLE from 4 hours ago
0 THORAD AGENA D DEB
1 04645U 70025AD  25294.67212646  .00000057  00000-0  29556-3 0  9991
2 04645  99.9240   6.0203 0328624  52.3048  98.8350 12.86561214604753
Epoch: 2025-10-21T16:07Z
TLE epoch observation values (Epoch: 2025-10-21T16:07:51.726Z)
Latitude
24.78956°
Longitude
-81.6902°
Altitude
1,364.898 km
Speed
7.156 km/s
True Right ascension
12h 42m 31s
True Declination
24° 40' 09"
Sunlit
Object was in daylight at epoch
Visualization orbit readout
Latitude
Unknown
Longitude
Unknown
Altitude
Unknown
Speed
Unknown
Apparent Right ascension
Unknown
Apparent Declination
Unknown
Sunlit
N/A
Visualization observer readout
Local Sidereal Time
15:34:16
Azimuth
Unknown
Elevation
Unknown
Doppler factor
Unknown
Orbital elements
Apogee altitude
1,565.332 km
Perigee altitude
1,059.86 km
Semi-major axis
7,690.733 km
Eccentricity
0.03286
Inclination
99.924°
RAAN
6.0203°
Arg. of periapsis
52.3048°
True anomaly
102.53018°
Mean anomaly
98.835°
Eccentric anomaly
100.68523°
Mean motion
3.21804 °/min
Orbital period
111.87 mins
BSTAR
0.00029556

Documentation

Showing up to 5 results
|